Dewpoint
69 69 68 68 68 68 68 68 67 68 68 68 68 68 68 68 69 69 68 68 68 68 68 67 67 67 68 68 68 68 68 69 69 70 70 70 70 70 70 70 70 70 70 70 69 69 68 68 66 64 64 64 64 63 63 63 63 63 62 62 62 62 62 62 63 63 63 63 63 63 62 62 62 62 62 63 63 63 64 63 63 63 63 63 63 63 64 65 66 68 69 70 70 69 68 68 68 68 68 68 68 69 69
69 68 68 68 68 68 68 67 67 67 67 68 68 68 68 68 68 68 68 68 68 68 67 67 67 67 68 68 68 68 68 69 69 70 70 70 70 70 70 70 70 70 69 69 69 68 68 66 64 63 63 63 63 63 63 63 62 62 62 62 62 62 62 62 63 63 63 63 63 63 62 62 62 62 63 63 63 63 64 64 63 63 63 63 63 63 64 65 66 67 68 69 69 69 68 68 68 68 67 68 68 68 68
68 68 68 68 68 68 67 67 67 67 67 68 68 68 68 68 68 68 68 68 67 67 67 67 67 67 67 68 68 68 68 69 69 69 70 70 70 70 70 70 69 69 69 68 68 68 67 66 64 63 63 62 62 62 62 62 61 61 61 61 61 61 61 62 62 63 63 63 63 63 62 62 62 62 63 63 63 63 64 64 64 63 63 63 63 63 64 64 65 66 68 68 69 69 69 68 68 67 67 67 67 67 67
68 68 68 68 68 68 67 67 67 67 67 67 68 68 68 68 68 68 68 67 67 67 67 67 67 67 67 67 68 68 68 69 69 69 70 69 69 69 69 69 69 68 68 68 67 67 65 65 63 63 62 62 61 62 62 62 62 61 61 62 61 61 62 62 62 63 63 63 63 62 62 62 63 62 62 62 63 63 63 63 63 63 63 63 63 63 63 64 65 66 67 68 68 68 68 68 67 67 66 66 66 66 66
68 68 68 68 68 68 67 67 67 67 67 67 68 68 68 68 68 68 67 67 67 66 66 66 66 67 67 67 67 68 68 68 69 69 69 69 69 69 68 68 68 68 68 67 67 66 65 64 63 62 61 61 61 61 62 62 62 61 61 61 61 61 62 62 62 63 63 63 63 62 62 62 62 62 62 62 62 62 63 63 63 63 63 63 63 63 63 63 64 65 66 67 67 67 67 67 67 66 65 65 65 66 66
68 68 68 68 68 68 67 67 67 67 67 67 68 68 68 68 67 67 67 66 66 66 66 66 66 66 67 67 67 67 68 68 68 69 69 69 69 68 68 68 68 68 67 67 66 66 64 62 62 62 61 61 61 61 61 62 61 60 60 61 62 62 62 62 62 63 63 63 63 62 62 62 62 62 62 62 62 61 62 62 63 63 63 63 63 63 63 63 63 64 65 66 66 66 66 66 66 65 65 65 65 65 65
68 68 68 68 68 68 67 67 67 67 67 67 67 68 67 67 67 67 67 66 66 66 66 66 66 66 66 67 67 67 67 68 68 68 68 68 68 68 68 68 67 67 67 67 66 65 63 61 61 61 61 60 60 60 60 61 61 60 60 61 62 62 62 62 62 62 63 63 63 63 62 62 62 62 62 62 61 61 61 61 62 62 62 62 62 62 62 62 63 63 64 65 65 65 65 65 65 65 64 64 64 64 64
68 68 68 68 68 68 68 68 67 67 67 67 67 67 67 67 67 67 66 66 66 66 66 66 66 66 66 66 67 67 67 67 68 68 68 68 68 67 67 67 67 67 67 67 66 65 64 62 61 61 60 61 60 60 60 60 60 59 60 61 61 62 62 62 62 62 63 63 63 63 62 62 62 62 62 62 62 61 61 61 61 61 62 62 62 61 61 61 62 62 63 64 64 65 65 65 65 65 65 64 64 64 64
69 68 68 68 69 68 68 68 68 67 67 67 67 67 67 67 67 66 66 66 66 66 66 66 66 66 66 66 66 66 67 67 67 67 67 67 67 67 67 67 67 67 67 67 66 66 65 63 61 61 60 60 61 61 60 60 59 59 60 61 61 62 62 62 62 62 62 63 63 63 63 62 62 62 62 62 62 62 61 61 61 61 61 61 61 61 61 61 61 62 62 63 63 64 64 64 64 64 65 64 64 64 64
69 69 69 69 69 69 68 68 68 68 67 67 67 67 67 67 67 66 66 66 66 66 66 65 66 66 66 66 66 66 66 67 67 67 67 67 67 67 66 67 67 67 67 67 66 66 65 63 61 60 60 60 61 61 61 60 60 60 60 62 62 62 62 62 62 62 62 63 63 63 63 62 62 61 61 62 62 62 62 61 61 61 61 61 61 62 61 61 61 61 61 62 62 63 63 63 63 64 64 64 64 64 63
69 69 69 69 69 69 68 68 68 68 67 67 67 67 67 67 67 66 66 66 65 65 65 65 65 66 66 66 66 66 66 66 67 67 67 67 67 67 67 67 67 67 67 67 66 66 65 62 61 60 61 60 61 61 60 60 61 61 61 63 63 63 63 62 62 62 61 62 62 63 63 63 62 61 61 61 62 62 62 61 61 61 60 61 61 62 62 61 61 61 61 62 62 62 62 62 63 63 63 63 63 63 63
69 69 69 69 69 69 68 68 68 68 67 67 67 67 67 67 67 66 66 66 66 65 65 65 66 66 66 66 66 66 66 66 66 66 67 67 67 67 67 67 67 67 67 66 66 65 63 61 60 60 60 60 60 60 60 60 60 60 61 63 63 63 63 62 62 62 61 61 61 62 62 63 62 62 61 61 61 61 61 61 60 60 60 60 61 62 62 62 62 62 62 62 62 62 62 62 62 62 62 63 63 63 63
69 69 69 69 69 69 69 68 68 68 68 68 68 68 68 67 67 67 66 66 66 66 66 66 66 66 66 66 66 66 66 66 66 66 66 66 66 67 67 67 67 67 66 66 65 64 62 61 60 60 60 60 60 59 60 60 60 61 63 63 63 63 63 63 62 62 61 61 61 61 61 62 62 62 62 61 61 61 61 60 60 59 59 59 60 61 62 62 62 62 62 62 62 62 61 61 61 61 62 62 62 62 62
69 69 68 69 69 69 69 68 68 68 68 68 68 68 68 68 67 67 66 66 66 66 66 66 66 66 66 66 66 66 66 65 65 65 66 66 66 66 66 66 66 66 65 64 63 62 62 61 60 60 60 60 60 60 62 62 61 61 64 64 63 63 63 63 63 62 62 61 60 60 60 61 62 62 62 61 61 61 60 60 60 59 59 59 60 61 62 62 62 62 62 62 62 62 61 61 61 61 61 61 61 61 61
68 68 68 68 69 69 69 69 69 68 68 68 68 68 68 68 68 67 67 66 66 66 66 66 66 66 66 66 66 65 65 65 65 65 66 65 65 65 66 66 65 65 64 62 61 60 61 60 60 60 60 60 59 60 62 61 61 62 64 64 63 63 63 63 63 62 62 61 60 60 60 60 61 62 62 61 61 60 60 60 60 60 59 59 59 60 61 62 62 62 63 62 62 62 61 61 61 61 61 61 61 62 61
66 66 67 68 69 69 69 69 69 69 69 69 69 69 69 68 68 68 67 67 67 66 66 66 66 66 66 66 66 65 64 65 65 66 66 65 65 65 65 64 64 63 62 59 59 59 59 59 60 60 60 59 59 60 61 61 62 63 65 64 64 63 63 63 63 62 62 61 61 60 59 59 60 61 61 61 61 61 60 60 60 60 59 59 59 59 60 61 62 62 62 62 62 62 61 61 61 60 61 61 62 62 62
65 65 68 68 69 69 70 70 70 70 70 70 70 70 69 69 68 68 68 67 67 67 66 66 66 66 66 66 65 63 61 62 63 64 65 65 65 65 64 63 62 60 59 58 58 59 59 59 60 60 59 59 59 60 61 61 63 65 65 64 64 64 63 63 63 63 62 62 61 60 59 59 59 60 61 61 61 61 61 60 60 60 59 59 59 59 60 60 61 61 61 62 62 62 61 61 61 60 60 61 61 62 62
65 67 68 69 69 69 70 70 70 70 70 70 70 70 70 69 69 69 68 68 68 67 67 67 66 66 66 65 63 61 58 58 59 60 62 64 64 64 63 62 60 59 57 57 58 58 59 59 60 60 60 59 59 60 61 62 63 66 66 65 64 64 64 63 63 63 62 62 61 61 60 59 59 59 60 61 61 61 61 60 60 60 59 59 59 59 59 60 60 60 60 60 61 61 61 61 60 60 60 60 60 61 62
66 68 68 68 69 69 69 70 70 70 70 70 70 70 70 70 69 69 69 68 68 68 67 67 67 66 66 65 62 59 58 57 58 58 59 60 61 62 61 60 58 57 57 57 57 57 58 59 59 60 60 59 59 60 61 62 64 67 67 66 65 64 64 63 63 63 63 62 61 61 60 59 59 59 60 60 61 61 61 61 60 60 59 59 59 59 59 59 60 60 60 59 59 60 60 60 60 60 59 59 59 60 61
66 68 68 68 69 69 69 69 69 69 70 70 70 69 69 70 70 69 69 69 68 68 68 68 67 66 65 62 59 57 58 57 58 59 59 59 59 59 59 58 57 56 56 55 56 57 58 59 59 60 59 59 59 59 61 63 65 68 68 66 65 64 64 64 63 63 63 62 62 61 60 60 59 59 59 60 61 61 61 61 60 60 59 59 59 59 59 59 60 60 59 59 59 59 59 59 59 59 59 59 59 59 59
66 66 67 68 68 68 68 68 68 68 69 69 68 66 66 68 68 69 69 68 68 68 68 67 65 63 62 60 58 57 57 58 58 59 59 58 57 57 58 58 57 56 55 55 55 56 57 58 59 59 59 59 59 59 60 63 66 69 69 67 66 65 64 64 63 63 63 62 62 61 60 60 59 59 59 59 60 61 61 61 60 60 59 59 59 59 59 59 59 60 60 59 59 59 59 59 59 59 59 59 59 59 59
64 65 65 65 65 65 65 65 65 66 67 68 65 63 63 64 65 66 66 64 65 66 67 65 63 62 61 60 59 58 57 58 58 58 59 58 57 57 58 57 56 55 54 55 56 57 57 58 59 59 58 59 58 59 60 64 68 69 69 68 66 65 65 64 64 63 63 62 62 61 61 60 59 59 59 59 59 60 61 61 60 60 59 59 59 58 58 59 59 59 60 60 59 59 58 58 58 58 58 58 58 58 58
64 64 63 63 63 63 63 63 63 63 63 65 63 62 62 63 63 63 63 63 64 65 66 64 64 63 62 60 59 58 58 59 59 59 58 58 58 57 56 55 55 54 54 54 55 56 57 58 58 59 59 59 59 59 60 65 68 68 70 68 67 66 65 64 64 63 63 63 62 61 61 60 59 59 59 59 59 59 60 60 60 60 59 59 59 58 58 58 59 59 59 60 59 59 59 58 58 58 58 58 58 58 58
64 64 63 63 63 63 63 63 63 63 62 62 62 62 62 62 61 62 62 62 63 64 64 64 63 63 63 61 60 59 58 58 59 59 58 57 57 56 55 54 53 53 54 54 55 56 56 57 58 58 59 58 58 59 60 64 67 68 69 68 67 66 65 65 64 63 63 63 62 62 61 60 60 59 59 59 59 59 59 60 60 60 59 59 59 58 58 58 58 58 59 59 59 59 59 58 57 57 57 57 58 58 59
65 65 65 64 64 63 63 63 63 63 62 60 61 61 61 60 59 60 60 62 62 63 63 63 63 63 62 61 60 59 58 58 58 58 57 57 56 55 54 53 52 52 53 54 54 55 55 57 57 58 58 58 58 58 60 63 65 67 68 68 68 66 65 65 64 64 63 63 63 62 62 61 60 59 59 59 59 59 59 59 59 59 59 59 59 59 58 58 58 58 58 59 59 59 59 58 57 57 56 57 57 58 58
66 65 65 65 65 64 63 63 63 62 62 60 60 60 59 59 59 59 59 60 61 62 62 62 61 61 60 60 59 58 58 58 57 57 56 56 56 56 54 53 52 51 52 54 54 54 55 55 56 57 57 57 58 58 59 62 64 66 67 68 68 67 66 65 65 64 64 63 63 63 62 61 61 60 59 59 59 59 59 59 59 59 59 59 59 59 58 58 57 57 58 58 58 59 59 58 58 57 56 56 57 57 58
65 65 65 65 65 65 64 63 63 62 62 61 60 60 59 59 59 59 59 59 59 60 60 59 59 58 58 58 58 58 57 57 57 57 56 56 55 55 55 53 52 51 52 53 54 54 54 54 55 55 56 56 57 58 58 61 63 65 66 67 67 67 67 66 65 65 64 64 63 63 63 62 61 61 60 59 59 59 59 59 59 59 59 59 59 59 59 58 58 57 57 57 58 58 58 58 58 57 56 56 56 56 57
65 65 65 65 65 65 65 63 63 62 62 62 61 60 59 59 59 59 59 59 59 59 59 58 57 57 57 57 57 57 57 57 56 56 55 55 55 54 54 54 52 51 51 52 53 54 54 54 54 54 54 56 57 57 57 59 62 64 65 66 66 67 67 66 66 65 65 64 64 63 63 63 62 61 61 60 59 59 59 59 59 59 59 59 60 59 59 59 58 58 57 57 57 57 58 58 58 57 57 56 56 56 56
65 65 65 65 65 65 65 64 63 62 62 62 61 61 60 59 59 59 59 59 58 58 59 58 58 58 57 58 58 57 57 57 56 55 54 55 54 54 54 53 52 51 50 52 53 53 53 53 53 53 54 54 56 57 57 59 61 63 64 65 66 66 67 67 67 66 65 65 64 64 63 63 63 62 62 61 60 60 59 59 59 59 59 59 60 60 59 59 59 58 58 57 57 57 57 58 58 58 57 56 56 56 56
64 65 65 64 64 64 64 63 63 63 62 62 62 61 61 60 60 60 59 59 59 58 58 57 57 56 56 56 57 57 58 58 57 55 54 54 53 53 52 52 52 51 51 51 52 52 52 52 52 52 52 54 54 56 56 57 59 62 63 64 64 65 66 67 67 66 66 65 65 64 64 63 63 63 62 62 61 60 60 59 59 59 59 59 60 60 60 59 59 59 58 58 57 57 57 57 58 58 58 57 56 56 56
64 64 64 64 64 64 63 63 63 63 63 63 62 62 61 61 61 60 60 59 59 58 57 57 56 56 56 56 56 56 57 57 56 55 54 53 53 52 52 52 52 51 51 51 51 51 52 52 52 51 51 52 53 54 55 56 58 60 63 63 63 64 65 66 67 67 66 66 65 65 64 64 64 63 63 63 62 61 61 60 59 59 59 59 60 60 60 60 60 59 59 58 58 57 57 57 58 58 58 58 57 57 56
63 63 63 64 64 63 63 63 63 62 62 63 63 62 62 61 61 61 60 59 59 58 58 58 57 57 56 56 56 56 56 56 56 55 54 53 52 52 53 53 52 52 51 51 51 51 51 51 51 51 51 51 51 53 54 55 56 58 60 62 63 63 64 65 66 66 67 66 66 66 65 65 64 64 63 63 63 62 62 61 60 60 59 59 60 60 60 60 60 60 59 59 59 58 57 57 57 58 59 58 58 57 57
63 63 63 63 63 63 63 63 62 62 62 62 63 62 62 61 61 61 60 59 59 58 58 58 57 57 56 56 56 56 55 54 55 55 54 54 53 52 52 52 52 52 51 51 52 51 51 51 51 51 51 50 50 51 52 53 54 55 58 60 62 62 63 63 64 65 66 67 66 66 65 65 65 64 64 63 63 63 62 62 61 60 60 60 60 60 60 60 60 60 60 60 59 59 58 58 57 58 58 59 59 58 58
62 62 62 62 62 62 62 62 62 62 62 62 62 61 61 60 60 60 59 59 58 56 56 56 56 56 56 56 56 55 55 54 54 54 54 54 53 52 50 51 51 51 51 51 51 51 51 51 50 50 51 50 50 50 50 51 52 53 55 57 59 61 62 63 63 64 65 66 66 66 65 65 65 65 64 64 63 63 63 63 62 61 61 60 60 60 60 60 60 61 61 60 60 59 59 59 58 58 58 58 59 59 59
61 61 61 61 62 62 62 61 61 61 61 61 61 60 60 59 59 59 59 58 57 56 55 54 54 54 54 55 55 54 54 52 53 53 54 54 53 52 51 51 51 51 51 51 51 51 51 51 51 50 50 50 50 50 50 50 50 51 52 55 57 59 61 62 62 63 63 64 65 65 65 65 65 65 65 64 64 64 63 63 63 62 62 61 61 60 60 60 61 61 61 61 60 60 60 59 59 59 58 58 59 59 59
60 60 61 61 61 61 61 61 61 61 61 60 60 59 59 59 59 59 59 59 58 57 55 55 55 55 55 55 55 55 54 54 53 54 54 54 53 52 51 51 51 50 50 51 50 50 50 51 51 51 50 50 50 50 50 50 50 50 51 53 54 57 59 60 61 61 62 63 63 64 65 65 65 65 64 64 64 64 64 63 63 63 63 62 61 61 61 61 61 61 61 61 61 61 61 60 60 59 59 59 59 59 59
60 60 60 60 60 60 61 61 61 61 60 60 60 59 59 59 59 59 59 59 58 57 57 56 56 56 56 56 56 55 55 55 55 54 54 54 54 53 53 52 51 50 50 50 50 50 50 50 50 51 50 50 50 50 50 50 50 50 50 50 52 53 55 56 58 59 60 61 62 63 64 65 65 65 64 64 64 64 64 64 63 63 63 63 62 62 61 61 61 61 61 61 61 61 61 61 61 60 60 60 59 59 59
60 60 60 60 60 60 60 61 61 61 60 60 59 59 59 59 59 59 59 59 58 58 57 57 57 57 57 56 56 56 55 55 54 54 54 54 54 54 54 53 52 51 51 50 50 50 50 50 50 50 50 50 50 50 51 51 50 50 50 50 50 51 52 53 54 56 58 59 60 62 63 63 64 64 64 64 64 64 64 64 64 64 63 63 63 63 62 62 61 61 61 61 61 61 61 61 61 61 61 61 60 60 59
61 60 60 60 60 60 60 61 61 60 60 60 59 59 59 59 59 59 59 58 58 58 57 57 57 56 56 55 55 55 56 55 55 55 54 54 54 54 54 54 54 53 52 51 50 50 50 50 50 50 50 50 50 50 51 51 51 51 51 51 50 51 51 52 53 54 55 56 58 59 61 62 63 63 64 64 64 64 64 64 64 64 64 64 63 63 63 62 62 62 62 61 61 61 61 61 61 62 62 62 61 61 60
61 61 60 60 60 60 60 60 60 60 60 60 59 59 59 58 58 58 58 58 58 57 57 57 57 56 56 56 55 55 55 54 54 54 54 54 54 55 55 55 54 54 53 52 51 50 50 50 50 49 49 50 50 50 50 51 51 51 51 51 51 51 51 51 52 52 53 54 54 56 59 60 62 63 63 63 64 64 64 64 64 64 64 64 64 63 63 63 62 62 62 62 62 62 61 61 61 62 62 62 62 62 61
61 61 60 60 60 60 60 60 60 60 60 60 60 59 59 59 58 58 58 58 57 57 56 57 57 57 57 56 56 55 54 54 54 54 54 54 54 54 54 55 55 54 54 54 53 52 51 50 50 50 49 50 50 50 50 50 51 51 51 52 51 51 51 51 52 52 51 52 52 53 55 58 60 61 62 63 63 64 64 64 64 64 64 64 64 64 64 63 63 62 62 62 62 62 62 61 61 62 62 62 63 63 63
61 61 60 60 60 60 60 60 60 60 60 60 59 59 59 59 59 58 58 58 57 57 56 56 57 57 57 56 56 56 55 55 54 53 54 54 54 54 54 54 54 54 54 54 54 53 52 51 50 50 49 49 50 50 50 50 50 50 51 51 52 52 52 53 52 52 51 51 51 51 52 56 58 59 61 62 63 63 64 64 64 64 65 65 64 64 64 64 63 63 62 62 62 62 62 62 62 62 62 63 63 64 64
61 60 60 60 59 59 59 59 59 59 60 60 59 59 59 59 59 59 58 58 57 57 57 56 56 56 57 57 56 56 56 55 54 54 54 54 54 53 53 54 54 54 54 54 54 53 53 52 52 51 50 50 50 50 50 50 50 50 50 51 51 52 53 53 52 51 51 50 50 50 50 52 55 58 59 60 61 62 63 63 63 64 64 64 64 64 64 64 64 63 63 63 62 62 62 62 62 62 62 62 63 64 64
61 60 59 59 59 59 59 59 59 59 59 59 59 59 59 59 59 59 58 58 58 57 57 56 56 56 57 57 56 56 56 56 55 54 54 54 54 54 54 54 54 54 55 54 54 54 53 53 52 52 52 51 50 50 50 50 50 50 50 50 50 51 52 52 52 52 51 51 51 50 50 50 52 55 57 58 59 60 61 61 62 63 63 64 64 64 64 64 64 64 64 63 63 62 62 62 62 62 62 62 63 63 64
60 59 59 59 58 58 58 58 59 59 59 59 59 59 59 59 59 58 58 58 58 58 57 57 56 56 56 57 57 57 56 56 56 56 54 54 54 54 54 54 55 55 54 54 54 54 53 53 52 52 52 51 50 50 50 50 50 50 50 50 50 50 51 51 52 52 52 52 51 51 51 51 51 52 53 55 56 57 59 59 60 61 62 63 63 63 63 63 64 64 64 64 63 62 61 62 62 62 62 61 61 62 63
59 59 58 58 57 57 57 58 58 59 59 59 59 59 58 58 58 58 58 58 58 58 57 57 57 56 56 57 57 57 57 56 56 56 56 55 54 54 55 55 55 54 55 55 55 54 54 54 53 52 51 51 51 51 51 52 52 51 50 50 50 50 50 50 51 52 52 52 52 52 52 51 51 51 51 52 53 54 55 57 59 59 61 62 63 63 63 63 64 64 64 64 63 62 61 61 61 61 61 61 60 60 61
59 58 58 57 57 57 57 58 58 58 59 59 58 58 58 58 58 58 58 58 57 57 57 57 57 57 57 57 57 57 56 56 56 56 56 54 54 55 56 55 55 54 54 55 55 55 55 54 54 53 52 52 52 52 51 52 53 52 52 52 51 51 50 50 50 51 51 52 52 52 52 52 52 52 52 52 52 53 54 55 57 58 59 61 62 62 63 63 63 64 64 63 63 63 62 62 61 61 60 60 60 60 60
59 58 57 57 57 57 57 58 58 58 58 58 58 58 58 58 58 58 58 58 57 57 58 58 57 57 57 57 57 56 56 55 56 56 56 55 54 54 54 54 55 55 54 55 55 55 56 55 54 54 53 53 52 52 52 52 52 53 52 53 53 52 52 52 51 51 51 51 51 52 52 52 52 52 52 52 52 53 53 54 55 57 58 59 60 61 62 63 63 63 63 63 63 63 63 62 61 60 60 59 59 60 60
59 58 57 57 57 57 57 57 58 58 58 58 58 58 58 58 58 58 58 58 58 58 58 58 58 57 56 57 57 57 55 55 55 56 57 56 56 55 55 55 55 56 56 55 55 56 57 56 55 55 55 54 54 53 53 53 53 53 53 53 53 53 52 52 52 51 51 51 51 51 51 51 52 52 52 52 52 53 53 54 54 55 56 58 59 60 61 62 62 63 63 63 63 62 62 62 61 60 59 59 59 60 61
59 58 57 57 57 57 57 57 58 58 57 58 58 58 58 58 58 58 58 58 58 58 58 58 58 58 57 56 57 57 56 55 55 56 57 56 55 55 56 55 55 56 56 56 55 55 56 55 55 56 56 56 56 55 54 54 53 53 53 53 53 53 53 53 52 50 50 50 50 51 51 51 51 51 52 52 53 53 54 54 54 54 55 56 58 59 60 61 62 62 62 62 62 62 61 61 61 60 59 59 59 59 61
59 59 58 57 57 57 57 57 57 57 58 58 58 58 58 58 58 59 58 58 58 58 58 58 57 57 58 57 57 57 56 56 56 57 57 55 54 54 54 54 54 55 55 55 55 55 54 54 54 55 55 56 56 56 55 54 54 54 53 53 53 53 54 53 51 50 49 50 50 50 50 50 50 51 52 52 53 53 53 54 54 54 54 54 55 56 57 58 59 60 61 61 62 62 61 61 60 59 59 58 58 59 60
59 59 58 57 57 57 57 57 57 57 58 58 58 58 58 58 58 58 59 58 58 58 58 57 57 57 56 57 57 57 55 56 57 58 57 54 52 51 52 54 54 53 52 53 54 55 54 54 53 53 54 53 53 53 53 53 54 54 54 54 54 54 54 53 51 48 47 48 48 49 49 49 49 50 51 51 52 53 53 53 53 53 53 53 54 54 55 55 56 57 59 60 60 61 62 61 59 58 57 57 57 58 58
60 59 59 58 58 57 57 57 57 57 58 58 58 58 58 58 58 58 59 59 59 59 58 58 58 58 57 56 56 56 55 56 57 58 58 55 53 51 52 54 54 52 49 50 52 54 54 54 54 53 52 51 50 50 50 51 53 54 54 53 53 53 53 51 48 46 46 47 47 47 47 47 47 48 50 51 51 52 52 52 52 52 52 52 52 53 53 54 54 55 56 58 59 60 62 59 58 56 55 56 57 57 58
60 60 59 59 58 58 57 57 58 58 58 58 58 58 58 58 58 58 58 59 59 59 59 59 59 58 58 57 56 56 56 56 57 57 58 57 55 54 53 52 50 49 46 49 50 52 53 51 50 50 51 49 49 49 49 51 51 51 52 52 52 52 51 49 46 45 46 47 47 47 47 46 46 46 48 49 50 50 50 50 50 50 51 51 52 52 52 53 54 54 54 55 56 57 58 57 56 55 55 56 57 58 59
60 60 59 59 59 58 57 58 58 58 58 58 58 58 58 58 58 58 59 59 59 59 59 59 59 59 58 57 57 57 56 56 56 56 57 56 57 57 55 51 50 49 46 48 49 50 53 50 48 49 52 49 49 50 50 49 49 50 51 51 51 50 50 48 46 45 46 46 46 45 45 45 45 45 46 46 46 46 46 46 47 49 50 51 51 52 52 53 53 53 53 54 54 54 55 55 56 56 56 56 57 58 59
60 60 59 59 59 58 58 58 58 58 58 59 59 59 59 59 59 59 59 59 59 59 59 59 59 59 59 58 58 57 57 56 55 55 57 56 57 58 57 55 52 51 50 49 49 50 51 48 48 51 54 50 50 51 51 49 48 49 51 50 50 49 48 47 46 45 45 45 45 44 44 45 45 45 45 44 44 45 45 45 47 48 50 50 51 51 51 51 51 52 52 52 53 53 54 56 56 56 56 56 56 57 57
59 59 59 59 59 58 58 58 58 58 59 59 59 59 59 59 59 59 59 59 59 59 59 59 59 59 59 59 58 58 57 57 57 57 57 57 57 57 57 57 56 55 55 52 51 50 48 47 50 53 54 52 51 50 49 48 48 48 49 49 48 48 48 47 45 45 45 45 44 44 44 45 45 44 43 43 43 44 45 45 46 48 49 49 49 50 49 49 50 50 50 51 52 53 55 56 56 56 55 55 55 55 55
59 59 59 59 59 59 58 58 58 58 58 59 59 59 59 59 59 59 59 59 59 59 59 59 59 59 59 59 59 58 58 58 57 57 56 56 56 56 56 56 56 56 56 55 54 52 49 49 50 51 51 53 53 51 48 48 49 50 49 48 47 47 47 46 45 45 45 44 44 44 44 44 43 43 43 43 44 45 45 46 47 47 48 48 48 48 48 49 49 50 50 51 52 54 55 55 55 55 54 54 54 54 54
59 59 59 59 59 59 58 58 58 58 58 59 59 59 59 59 59 59 59 59 59 59 59 59 59 59 59 59 59 58 58 58 58 58 56 56 56 56 56 56 56 56 56 54 54 54 54 53 52 51 51 53 54 54 52 52 51 51 51 50 48 47 47 46 45 45 45 44 43 43 43 42 43 43 43 44 45 46 47 46 46 46 47 47 47 48 49 49 50 50 51 53 54 54 55 54 54 54 54 54 54 54 54
59 59 59 59 59 59 58 58 58 58 58 59 59 59 59 59 59 59 59 59 59 60 60 59 59 59 59 59 59 58 58 58 58 58 57 57 57 57 56 57 57 57 57 54 53 54 56 56 54 54 54 55 55 55 55 55 54 53 52 51 50 48 47 47 47 46 45 45 43 42 42 42 42 43 44 46 46 46 46 46 45 45 46 46 46 47 48 48 49 50 51 53 54 54 54 54 54 54 53 53 53 53 54
59 59 59 59 59 59 58 58 58 58 59 59 59 59 59 59 59 60 60 59 60 60 60 60 59 59 59 59 59 59 59 58 58 58 58 58 58 57 56 57 57 58 58 56 55 54 56 56 57 57 57 57 56 56 55 55 55 54 54 52 50 49 49 49 48 48 47 45 44 42 42 42 42 44 45 47 46 46 45 45 45 44 44 44 45 45 46 47 47 48 49 51 53 54 54 53 53 53 53 52 52 52 53